"Period start","avg(HW err(1)/warn(2) (#))","avg(Visibility (m))","avg(Weather code (#))","avg(Precip intensity (mm/h))","min(HW err(1)/warn(2) (#))","max(HW err(1)/warn(2) (#))","std(HW err(1)/warn(2) (#))","med(HW err(1)/warn(2) (#))","min(Visibility (m))","max(Visibility (m))","std(Visibility (m))","med(Visibility (m))","min(Weather code (#))","max(Weather code (#))","std(Weather code (#))","med(Weather code (#))","min(Precip intensity (mm/h))","max(Precip intensity (mm/h))","std(Precip intensity (mm/h))","med(Precip intensity (mm/h))"
2013-09-07 00:00:00,2,48668,0,0.00,2,2,0,2,44430,50000,2077,50000,0,0,0,0,0.00,0.00,0.00,0.00
2013-09-07 00:10:00,2,47378,0,0.00,2,2,0,2,37821,50000,3889,49554,0,0,0,0,0.00,0.00,0.00,0.00
2013-09-07 00:20:00,2,49555,0,0.00,2,2,0,2,46595,50000,1034,50000,0,0,0,0,0.00,0.00,0.00,0.00
2013-09-07 00:30:00,2,45305,0,0.00,2,2,0,2,34386,50000,5395,47592,0,0,0,0,0.00,0.00,0.00,0.00
2013-09-07 00:40:00,2,49840,0,0.00,2,2,0,2,48630,50000,409,50000,0,0,0,0,0.00,0.00,0.00,0.00
2013-09-07 00:50:00,2,49650,0,0.00,2,2,0,2,47846,50000,660,50000,0,0,0,0,0.00,0.00,0.00,0.00
2013-09-07 01:00:00,2,49990,0,0.00,2,2,0,2,49888,50000,32,50000,0,0,0,0,0.00,0.00,0.00,0.00
2013-09-07 01:10:00,2,49336,0,0.00,2,2,0,2,43355,50000,1994,50000,0,0,0,0,0.00,0.00,0.00,0.00
2013-09-07 01:20:00,2,49586,0,0.00,2,2,0,2,46777,50000,963,50000,0,0,0,0,0.00,0.00,0.00,0.00
2013-09-07 01:30:00,2,49373,0,0.00,2,2,0,2,44186,50000,1732,50000,0,0,0,0,0.00,0.00,0.00,0.00
2013-09-07 01:40:00,2,49301,0,0.00,2,2,0,2,45507,50000,1369,50000,0,0,0,0,0.00,0.00,0.00,0.00
2013-09-07 01:50:00,2,49862,0,0.00,2,2,0,2,48619,50000,414,50000,0,0,0,0,0.00,0.00,0.00,0.00
2013-09-07 02:00:00,2,49853,0,0.00,2,2,0,2,49023,50000,297,50000,0,0,0,0,0.00,0.00,0.00,0.00
2013-09-07 02:10:00,2,49970,0,0.00,2,2,0,2,49700,50000,90,50000,0,0,0,0,0.00,0.00,0.00,0.00
2013-09-07 02:20:00,2,47663,0,0.00,2,2,0,2,38996,50000,3433,49238,0,0,0,0,0.00,0.00,0.00,0.00
2013-09-07 02:30:00,2,50000,0,0.00,2,2,0,2,50000,50000,0,50000,0,0,0,0,0.00,0.00,0.00,0.00
2013-09-07 02:40:00,2,50000,0,0.00,2,2,0,2,50000,50000,0,50000,0,0,0,0,0.00,0.00,0.00,0.00
2013-09-07 02:50:00,2,49918,0,0.00,2,2,0,2,49180,50000,246,50000,0,0,0,0,0.00,0.00,0.00,0.00
2013-09-07 03:00:00,2,49527,0,0.00,2,2,0,2,47830,50000,771,50000,0,0,0,0,0.00,0.00,0.00,0.00
2013-09-07 03:10:00,2,50000,0,0.00,2,2,0,2,50000,50000,0,50000,0,0,0,0,0.00,0.00,0.00,0.00
2013-09-07 03:20:00,2,48737,0,0.00,2,2,0,2,46418,50000,1555,50000,0,0,0,0,0.00,0.00,0.00,0.00
2013-09-07 03:30:00,2,49708,0,0.00,2,2,0,2,47695,50000,695,50000,0,0,0,0,0.00,0.00,0.00,0.00
2013-09-07 03:40:00,2,49748,0,0.00,2,2,0,2,47568,50000,727,50000,0,0,0,0,0.00,0.00,0.00,0.00
2013-09-07 03:50:00,2,49778,0,0.00,2,2,0,2,47782,50000,665,50000,0,0,0,0,0.00,0.00,0.00,0.00
2013-09-07 04:00:00,2,49882,0,0.00,2,2,0,2,48815,50000,356,50000,0,0,0,0,0.00,0.00,0.00,0.00
2013-09-07 04:10:00,2,50000,0,0.00,2,2,0,2,50000,50000,0,50000,0,0,0,0,0.00,0.00,0.00,0.00
2013-09-07 04:20:00,2,48925,0,0.00,2,2,0,2,45985,50000,1535,49872,0,0,0,0,0.00,0.00,0.00,0.00
2013-09-07 04:30:00,2,49880,0,0.00,2,2,0,2,49092,50000,277,50000,0,0,0,0,0.00,0.00,0.00,0.00
2013-09-07 04:40:00,2,48201,0,0.00,2,2,0,2,44300,50000,2061,48866,0,0,0,0,0.00,0.00,0.00,0.00
2013-09-07 04:50:00,2,43837,53,1.32,2,2,0,2,37088,50000,4943,42021,41,61,9,56,0.15,3.70,1.00,1.38
2013-09-07 05:00:00,2,43899,56,0.63,2,2,0,2,29364,50000,6785,45867,51,61,5,56,0.05,1.50,0.42,0.65
2013-09-07 05:10:00,2,48163,50,0.07,2,2,0,2,41139,50000,2739,49975,41,61,7,51,0.00,0.15,0.04,0.08
2013-09-07 05:20:00,2,49720,40,0.04,2,2,0,2,48164,50000,593,50000,0,61,21,46,0.00,0.20,0.07,0.00
2013-09-07 05:30:00,2,50000,0,0.00,2,2,0,2,50000,50000,0,50000,0,0,0,0,0.00,0.00,0.00,0.00
2013-09-07 05:40:00,2,49930,0,0.00,0,2,1,2,49300,50000,210,50000,0,0,0,0,0.00,0.00,0.00,0.00
2013-09-07 05:50:00,2,28025,54,0.63,2,2,0,2,18625,43553,7249,26942,52,61,4,52,0.20,1.00,0.27,0.57
2013-09-07 06:00:00,1,27129,52,0.95,0,2,1,2,21807,39135,4737,26400,52,52,0,52,0.25,1.60,0.38,0.95
2013-09-07 06:10:00,2,49218,55,0.23,2,2,0,2,43001,50000,2079,50000,41,61,7,56,0.05,0.90,0.24,0.15
2013-09-07 06:20:00,2,37906,45,0.20,2,2,0,2,12111,50000,15485,46744,41,61,8,41,0.10,0.40,0.10,0.17
2013-09-07 06:30:00,2,45308,4,0.00,2,2,0,2,35859,50000,5938,50000,0,41,12,0,0.00,0.00,0.00,0.00
2013-09-07 06:40:00,2,31155,1,0.00,2,2,0,2,2420,50000,22460,48404,0,10,3,0,0.00,0.00,0.00,0.00
2013-09-07 06:50:00,2,3774,50,0.82,2,2,0,2,2897,6222,926,3520,41,52,4,52,0.15,2.25,0.72,0.65
2013-09-07 07:00:00,2,26230,10,0.00,2,2,0,2,9135,46447,10947,24240,0,51,20,0,0.00,0.00,0.00,0.00
2013-09-07 07:10:00,2,48489,0,0.00,2,2,0,2,45734,50000,1750,49660,0,0,0,0,0.00,0.00,0.00,0.00
2013-09-07 07:20:00,2,49519,0,0.00,2,2,0,2,47600,50000,831,50000,0,0,0,0,0.00,0.00,0.00,0.00
2013-09-07 07:30:00,2,49527,0,0.00,2,2,0,2,47753,50000,836,50000,0,0,0,0,0.00,0.00,0.00,0.00
2013-09-07 07:40:00,2,49368,0,0.00,2,2,0,2,45673,50000,1268,50000,0,0,0,0,0.00,0.00,0.00,0.00
2013-09-07 07:50:00,2,49335,0,0.00,2,2,0,2,45276,50000,1446,50000,0,0,0,0,0.00,0.00,0.00,0.00
2013-09-07 08:00:00,2,48512,0,0.00,2,2,0,2,44579,50000,1945,49249,0,0,0,0,0.00,0.00,0.00,0.00
2013-09-07 08:10:00,2,46474,0,0.00,2,2,0,2,40364,50000,3225,46314,0,0,0,0,0.00,0.00,0.00,0.00
2013-09-07 08:20:00,2,50000,0,0.00,2,2,0,2,50000,50000,0,50000,0,0,0,0,0.00,0.00,0.00,0.00
2013-09-07 08:30:00,2,50000,0,0.00,2,2,0,2,50000,50000,0,50000,0,0,0,0,0.00,0.00,0.00,0.00
2013-09-07 08:40:00,2,38901,0,0.00,2,2,0,2,22665,48990,8452,41370,0,0,0,0,0.00,0.00,0.00,0.00
2013-09-07 08:50:00,2,39003,0,0.00,2,2,0,2,18989,50000,12607,46298,0,0,0,0,0.00,0.00,0.00,0.00
2013-09-07 09:00:00,2,49916,0,0.00,2,2,0,2,49553,50000,169,50000,0,0,0,0,0.00,0.00,0.00,0.00
2013-09-07 09:10:00,2,50000,0,0.00,2,2,0,2,50000,50000,0,50000,0,0,0,0,0.00,0.00,0.00,0.00
2013-09-07 09:20:00,2,49469,0,0.00,2,2,0,2,47333,50000,1062,50000,0,0,0,0,0.00,0.00,0.00,0.00
2013-09-07 09:30:00,2,50000,0,0.00,2,2,0,2,50000,50000,0,50000,0,0,0,0,0.00,0.00,0.00,0.00
2013-09-07 09:40:00,2,50000,0,0.00,2,2,0,2,50000,50000,0,50000,0,0,0,0,0.00,0.00,0.00,0.00
2013-09-07 09:50:00,2,50000,0,0.00,2,2,0,2,50000,50000,0,50000,0,0,0,0,0.00,0.00,0.00,0.00
2013-09-07 10:00:00,2,44354,0,0.00,2,2,0,2,31180,50000,6006,45470,0,0,0,0,0.00,0.00,0.00,0.00
2013-09-07 10:10:00,2,26323,0,0.00,2,2,0,2,13851,39250,8345,24920,0,0,0,0,0.00,0.00,0.00,0.00
2013-09-07 10:20:00,2,40732,0,0.00,2,2,0,2,19589,50000,12123,49154,0,0,0,0,0.00,0.00,0.00,0.00
2013-09-07 10:30:00,2,49930,0,0.00,2,2,0,2,49300,50000,210,50000,0,0,0,0,0.00,0.00,0.00,0.00
2013-09-07 10:40:00,2,49977,0,0.00,2,2,0,2,49773,50000,68,50000,0,0,0,0,0.00,0.00,0.00,0.00
2013-09-07 10:50:00,2,50000,0,0.00,2,2,0,2,50000,50000,0,50000,0,0,0,0,0.00,0.00,0.00,0.00
2013-09-07 11:00:00,2,48724,0,0.00,2,2,0,2,45162,50000,1836,50000,0,0,0,0,0.00,0.00,0.00,0.00
2013-09-07 11:10:00,2,49698,0,0.00,2,2,0,2,48127,50000,626,50000,0,0,0,0,0.00,0.00,0.00,0.00
2013-09-07 11:20:00,2,49874,0,0.00,2,2,0,2,49179,50000,266,50000,0,0,0,0,0.00,0.00,0.00,0.00
2013-09-07 11:30:00,2,46995,0,0.00,2,2,0,2,38887,50000,3841,49175,0,0,0,0,0.00,0.00,0.00,0.00
2013-09-07 11:40:00,2,49410,0,0.00,2,2,0,2,47368,50000,1020,50000,0,0,0,0,0.00,0.00,0.00,0.00
2013-09-07 11:50:00,2,49546,0,0.00,2,2,0,2,47889,50000,765,49996,0,0,0,0,0.00,0.00,0.00,0.00
2013-09-07 12:00:00,2,49078,0,0.00,2,2,0,2,45624,50000,1418,49948,0,0,0,0,0.00,0.00,0.00,0.00
2013-09-07 12:10:00,2,48831,0,0.00,2,2,0,2,44920,50000,1665,49511,0,0,0,0,0.00,0.00,0.00,0.00
2013-09-07 12:20:00,2,49709,0,0.00,2,2,0,2,48304,50000,515,50000,0,0,0,0,0.00,0.00,0.00,0.00
2013-09-07 12:30:00,2,45500,0,0.00,2,2,0,2,42102,49212,2361,45086,0,0,0,0,0.00,0.00,0.00,0.00
2013-09-07 12:40:00,2,47541,0,0.00,2,2,0,2,43293,50000,2328,48527,0,0,0,0,0.00,0.00,0.00,0.00
2013-09-07 12:50:00,2,49167,0,0.00,2,2,0,2,44785,50000,1548,49907,0,0,0,0,0.00,0.00,0.00,0.00
2013-09-07 13:00:00,2,47369,0,0.00,2,2,0,2,35976,50000,4926,50000,0,0,0,0,0.00,0.00,0.00,0.00
2013-09-07 13:10:00,2,46615,0,0.00,2,2,0,2,40123,50000,3607,47932,0,0,0,0,0.00,0.00,0.00,0.00
2013-09-07 13:20:00,2,43986,0,0.00,2,2,0,2,37339,47947,3752,45202,0,0,0,0,0.00,0.00,0.00,0.00
2013-09-07 13:30:00,2,44785,0,0.00,2,2,0,2,40011,50000,3271,43966,0,0,0,0,0.00,0.00,0.00,0.00
2013-09-07 13:40:00,2,42156,0,0.00,2,2,0,2,32828,50000,6079,41368,0,0,0,0,0.00,0.00,0.00,0.00
2013-09-07 13:50:00,2,49052,0,0.00,2,2,0,2,45782,50000,1206,49146,0,0,0,0,0.00,0.00,0.00,0.00
2013-09-07 14:00:00,2,44427,0,0.00,2,2,0,2,38929,50000,3696,44130,0,0,0,0,0.00,0.00,0.00,0.00
2013-09-07 14:10:00,2,32653,0,0.00,2,2,0,2,25718,48270,6910,29130,0,0,0,0,0.00,0.00,0.00,0.00
2013-09-07 14:20:00,2,30445,0,0.00,2,2,0,2,26744,34603,3050,30190,0,0,0,0,0.00,0.00,0.00,0.00
2013-09-07 14:30:00,2,39685,0,0.00,2,2,0,2,31010,49970,5859,40008,0,0,0,0,0.00,0.00,0.00,0.00
2013-09-07 14:40:00,2,35216,0,0.00,2,2,0,2,27709,42154,4113,34878,0,0,0,0,0.00,0.00,0.00,0.00
2013-09-07 14:50:00,2,45662,0,0.00,2,2,0,2,40674,50000,3224,45510,0,0,0,0,0.00,0.00,0.00,0.00
2013-09-07 15:00:00,2,41430,0,0.00,2,2,0,2,31419,48641,4957,43452,0,0,0,0,0.00,0.00,0.00,0.00
2013-09-07 15:10:00,2,29711,0,0.00,2,2,0,2,23482,44555,7299,26934,0,0,0,0,0.00,0.00,0.00,0.00
2013-09-07 15:20:00,2,22286,0,0.00,2,2,0,2,20300,24609,1271,22171,0,0,0,0,0.00,0.00,0.00,0.00
2013-09-07 15:30:00,2,30381,0,0.00,2,2,0,2,22802,38205,5684,32334,0,0,0,0,0.00,0.00,0.00,0.00
2013-09-07 15:40:00,2,39416,0,0.00,2,2,0,2,29977,47252,5457,40596,0,0,0,0,0.00,0.00,0.00,0.00
2013-09-07 15:50:00,2,21663,0,0.00,2,2,0,2,16565,28171,3099,21978,0,0,0,0,0.00,0.00,0.00,0.00
2013-09-07 16:00:00,2,22427,0,0.00,2,2,0,2,18242,26677,2569,22746,0,0,0,0,0.00,0.00,0.00,0.00
2013-09-07 16:10:00,2,23840,0,0.00,2,2,0,2,19071,31037,3716,23292,0,0,0,0,0.00,0.00,0.00,0.00
2013-09-07 16:20:00,2,25443,0,0.00,2,2,0,2,20614,32324,3968,23964,0,0,0,0,0.00,0.00,0.00,0.00
2013-09-07 16:30:00,2,25685,0,0.00,2,2,0,2,23849,28752,1587,24935,0,0,0,0,0.00,0.00,0.00,0.00
2013-09-07 16:40:00,2,27058,0,0.00,2,2,0,2,22287,32290,2951,26946,0,0,0,0,0.00,0.00,0.00,0.00
2013-09-07 16:50:00,2,29995,0,0.00,2,2,0,2,26032,34912,2868,28872,0,0,0,0,0.00,0.00,0.00,0.00
2013-09-07 17:00:00,2,30919,4,0.01,2,2,0,2,18010,36924,5519,32466,0,40,12,0,0.00,0.15,0.05,0.00
2013-09-07 17:10:00,2,21208,50,0.42,2,2,0,2,16472,26344,3270,20514,40,52,3,51,0.10,0.75,0.20,0.38
2013-09-07 17:20:00,2,28012,51,0.39,2,2,0,2,19230,31937,3665,28908,51,52,0,51,0.00,1.70,0.59,0.08
2013-09-07 17:30:00,2,13971,59,3.61,2,2,0,2,11925,17358,1562,13760,52,61,4,61,2.00,4.90,0.80,3.45
2013-09-07 17:40:00,2,13579,61,3.74,2,2,0,2,11468,14710,1002,14020,61,61,0,61,2.85,4.60,0.57,3.62
2013-09-07 17:50:00,2,15714,59,1.84,2,2,0,2,13659,18379,1330,15534,52,61,4,61,0.95,2.55,0.53,1.83
2013-09-07 18:00:00,2,13318,55,2.85,2,2,0,2,9743,15821,2335,14632,52,61,4,52,1.35,5.05,1.47,2.25
2013-09-07 18:10:00,2,11403,61,4.20,2,2,0,2,8673,13104,1377,12039,61,61,0,61,1.90,7.15,1.80,3.90
2013-09-07 18:20:00,2,11060,61,4.67,2,2,0,2,8878,15230,1773,10917,61,61,0,61,2.55,7.30,1.66,4.62
2013-09-07 18:30:00,2,9610,61,5.44,2,2,0,2,8189,10546,799,9875,61,61,0,61,4.25,6.75,0.73,5.55
2013-09-07 18:40:00,2,10022,61,4.85,2,2,0,2,8514,12347,1350,9962,61,61,0,61,1.90,7.25,1.60,5.33
2013-09-07 18:50:00,2,11253,61,2.81,2,2,0,2,9699,13180,1074,11212,61,61,0,61,1.05,4.65,1.00,2.73
2013-09-07 19:00:00,2,12046,61,2.29,2,2,0,2,10845,13434,697,12090,61,61,0,61,1.25,3.35,0.61,2.27
2013-09-07 19:10:00,2,13022,61,2.58,2,2,0,2,10261,16023,1665,13163,61,61,0,61,1.10,4.15,0.88,2.55
2013-09-07 19:20:00,2,14927,61,2.33,2,2,0,2,11506,17487,1992,15386,61,61,0,61,1.00,3.85,0.89,2.28
2013-09-07 19:30:00,2,13541,61,2.64,2,2,0,2,11569,15488,1242,13054,61,61,0,61,1.55,4.25,0.86,2.62
2013-09-07 19:40:00,2,12630,61,2.33,2,2,0,2,11167,15041,1270,12652,61,61,0,61,1.75,3.40,0.50,2.20
2013-09-07 19:50:00,2,13113,57,2.17,2,2,0,2,11910,14874,807,12856,52,61,4,61,0.85,3.20,0.68,2.17
2013-09-07 20:00:00,2,10277,61,3.46,2,2,0,2,8791,11859,950,10136,61,61,0,61,2.40,4.40,0.65,3.42
2013-09-07 20:10:00,2,9423,61,3.26,2,2,0,2,8053,10213,650,9430,61,61,0,61,2.50,5.15,0.79,3.12
2013-09-07 20:20:00,2,10496,61,3.50,2,2,0,2,9305,11313,634,10583,61,61,0,61,2.60,4.20,0.49,3.42
2013-09-07 20:30:00,2,10844,61,2.63,2,2,0,2,9449,12173,906,10742,61,61,0,61,0.90,4.15,0.94,2.65
2013-09-07 20:40:00,2,12079,56,2.92,2,2,0,2,10664,14439,1011,12019,52,61,4,56,1.35,5.40,1.25,2.83
2013-09-07 20:50:00,2,11040,61,4.80,2,2,0,2,10027,12668,790,11140,61,61,0,61,2.95,7.10,1.42,4.55
2013-09-07 21:00:00,2,10103,61,5.02,2,2,0,2,9314,11161,536,9961,61,61,0,61,3.50,7.55,1.24,4.75
2013-09-07 21:10:00,2,9220,56,2.66,2,2,0,2,8632,9982,401,9174,52,61,4,56,1.90,3.90,0.64,2.50
2013-09-07 21:20:00,2,11419,52,1.60,2,2,0,2,10224,12693,823,11368,52,52,0,52,1.05,2.20,0.36,1.65
2013-09-07 21:30:00,2,12816,55,1.40,2,2,0,2,11265,14480,950,12880,52,61,4,52,0.95,2.00,0.28,1.38
2013-09-07 21:40:00,2,15468,58,2.14,2,2,0,2,13898,18355,1493,14967,52,61,4,61,0.75,4.60,1.03,2.10
2013-09-07 21:50:00,2,22132,61,2.66,2,2,0,2,14034,27951,3942,22302,61,61,0,61,1.40,3.80,0.81,2.60
2013-09-07 22:00:00,2,24674,61,1.48,2,2,0,2,16192,32593,4551,24356,61,61,0,61,0.60,3.55,0.87,1.27
2013-09-07 22:10:00,2,36153,50,0.53,2,2,0,2,21718,46190,7760,37790,0,61,17,52,0.00,1.20,0.43,0.50
2013-09-07 22:20:00,2,42182,25,0.01,2,2,0,2,36558,50000,4488,39742,0,41,20,41,0.00,0.05,0.02,0.00
2013-09-07 22:30:00,2,49418,47,0.04,2,2,0,2,45368,50000,1396,50000,41,51,5,51,0.00,0.10,0.05,0.00
2013-09-07 22:40:00,2,47355,47,0.02,2,2,0,2,41266,50000,3130,48568,41,51,5,51,0.00,0.05,0.02,0.00
2013-09-07 22:50:00,2,48462,4,0.00,2,2,0,2,43262,50000,2578,50000,0,41,12,0,0.00,0.00,0.00,0.00
2013-09-07 23:00:00,2,47163,0,0.00,2,2,0,2,39396,50000,3646,49101,0,0,0,0,0.00,0.00,0.00,0.00
2013-09-07 23:10:00,2,49363,0,0.00,2,2,0,2,44862,50000,1545,50000,0,0,0,0,0.00,0.00,0.00,0.00
2013-09-07 23:20:00,2,48288,0,0.00,2,2,0,2,43358,50000,2119,49150,0,0,0,0,0.00,0.00,0.00,0.00
2013-09-07 23:30:00,2,49058,0,0.00,2,2,0,2,45973,50000,1486,50000,0,0,0,0,0.00,0.00,0.00,0.00
2013-09-07 23:40:00,2,49534,0,0.00,2,2,0,2,46186,50000,1138,50000,0,0,0,0,0.00,0.00,0.00,0.00
2013-09-07 23:50:00,2,47348,0,0.00,2,2,0,2,42318,50000,2985,48628,0,0,0,0,0.00,0.00,0.00,0.00
